^^
Your Local Weather - Clay, NY Station Historical Data
Daily Summary for February 7, 2017 Units:  English    Metric   Both
« Previous Day
Next Day »
Daily Weekly Monthly Yearly Custom
  High: Low: Average:
Temperature: 46.3 °F 26.9 °F 32.1 °F
Dew Point: 42.4 °F 19.2 °F 26.3 °F
Humidity: 94% 65% 79%
Wind Speed: 7.0mph 0.0mph 3.3mph
Wind Gust: 15.0mph - -
Wind- - East
Pressure: 29.97 in 29.32 in -
Precipitation: 0.01 in    
Historical Graphs
 
 
Tabular Data for February 7, 2017
Time Temperature Dew Point Pressure Wind Wind Speed Wind Gust Humidity Rainfall Rate (Hourly) solar
00:00 26.9 °F 20.0 °F 29.97 in East 1.0 mph 3.0 mph 75% 0.00 in 0 W/m2
00:06 26.9 °F 19.7 °F 29.96 in ENE 3.0 mph 8.0 mph 74% 0.00 in 0 W/m2
00:12 27.0 °F 19.8 °F 29.96 in ENE 3.0 mph 3.0 mph 74% 0.00 in 0 W/m2
00:18 27.0 °F 19.8 °F 29.96 in ENE 2.0 mph 3.0 mph 74% 0.00 in 0 W/m2
00:24 27.1 °F 19.9 °F 29.96 in ENE 2.0 mph 4.0 mph 74% 0.00 in 0 W/m2
00:30 27.1 °F 19.9 °F 29.95 in NE 2.0 mph 2.0 mph 74% 0.00 in 0 W/m2
00:36 27.1 °F 19.9 °F 29.95 in East 2.0 mph 2.0 mph 74% 0.00 in 0 W/m2
00:42 27.2 °F 20.0 °F 29.94 in ENE 2.0 mph 3.0 mph 74% 0.00 in 0 W/m2
00:48 27.2 °F 20.0 °F 29.94 in ENE 3.0 mph 4.0 mph 74% 0.00 in 0 W/m2
00:54 27.2 °F 20.0 °F 29.94 in East 3.0 mph 3.0 mph 74% 0.00 in 0 W/m2
01:00 27.2 °F 20.0 °F 29.94 in East 1.0 mph 1.0 mph 74% 0.00 in 0 W/m2
01:06 27.2 °F 20.0 °F 29.94 in ENE 1.0 mph 4.0 mph 74% 0.00 in 0 W/m2
01:12 27.2 °F 20.0 °F 29.93 in East 3.0 mph 3.0 mph 74% 0.00 in 0 W/m2
01:18 27.2 °F 20.0 °F 29.93 in ENE 2.0 mph 3.0 mph 74% 0.00 in 0 W/m2
01:24 27.3 °F 20.1 °F 29.93 in ENE 2.0 mph 3.0 mph 74% 0.00 in 0 W/m2
01:30 27.3 °F 20.1 °F 29.93 in East 3.0 mph 3.0 mph 74% 0.00 in 0 W/m2
01:36 27.2 °F 20.0 °F 29.92 in East 2.0 mph 6.0 mph 74% 0.00 in 0 W/m2
01:42 27.3 °F 20.1 °F 29.92 in ENE 2.0 mph 2.0 mph 74% 0.00 in 0 W/m2
01:48 27.3 °F 20.1 °F 29.92 in ENE 2.0 mph 3.0 mph 74% 0.00 in 0 W/m2
01:54 27.3 °F 20.1 °F 29.92 in ENE 2.0 mph 4.0 mph 74% 0.00 in 0 W/m2
02:00 27.4 °F 20.2 °F 29.92 in NE 3.0 mph 3.0 mph 74% 0.00 in 0 W/m2
02:06 27.5 °F 20.0 °F 29.92 in East 3.0 mph 5.0 mph 73% 0.00 in 0 W/m2
02:12 27.6 °F 19.8 °F 29.92 in NE 3.0 mph 4.0 mph 72% 0.00 in 0 W/m2
02:18 27.6 °F 19.8 °F 29.92 in ENE 3.0 mph 4.0 mph 72% 0.00 in 0 W/m2
02:24 27.7 °F 19.8 °F 29.92 in ENE 3.0 mph 3.0 mph 72% 0.00 in 0 W/m2
02:30 27.7 °F 19.8 °F 29.92 in East 3.0 mph 3.0 mph 72% 0.00 in 0 W/m2
02:36 27.7 °F 19.8 °F 29.92 in SSE 2.0 mph 4.0 mph 72% 0.00 in 0 W/m2
02:42 27.8 °F 19.9 °F 29.91 in ENE 2.0 mph 7.0 mph 72% 0.00 in 0 W/m2
02:48 27.8 °F 19.6 °F 29.91 in NNE 3.0 mph 7.0 mph 71% 0.00 in 0 W/m2
02:54 27.9 °F 19.7 °F 29.91 in ENE 3.0 mph 5.0 mph 71% 0.00 in 0 W/m2
03:00 27.9 °F 19.7 °F 29.91 in ENE 4.0 mph 4.0 mph 71% 0.00 in 0 W/m2
03:06 28.0 °F 19.8 °F 29.91 in East 3.0 mph 4.0 mph 71% 0.00 in 0 W/m2
03:12 28.0 °F 19.8 °F 29.91 in ENE 4.0 mph 7.0 mph 71% 0.00 in 0 W/m2
03:18 28.1 °F 19.6 °F 29.90 in East 5.0 mph 7.0 mph 70% 0.00 in 0 W/m2
03:24 28.1 °F 19.9 °F 29.90 in ENE 5.0 mph 10.0 mph 71% 0.00 in 0 W/m2
03:30 28.1 °F 19.9 °F 29.89 in NE 5.0 mph 5.0 mph 71% 0.00 in 0 W/m2
03:36 28.1 °F 19.6 °F 29.89 in East 4.0 mph 6.0 mph 70% 0.00 in 0 W/m2
03:42 28.1 °F 19.9 °F 29.89 in ENE 4.0 mph 8.0 mph 71% 0.00 in 0 W/m2
03:48 28.2 °F 19.7 °F 29.89 in ENE 4.0 mph 8.0 mph 70% 0.00 in 0 W/m2
03:54 28.1 °F 19.6 °F 29.89 in ENE 5.0 mph 7.0 mph 70% 0.00 in 0 W/m2
04:00 28.1 °F 19.9 °F 29.88 in ENE 4.0 mph 5.0 mph 71% 0.00 in 0 W/m2
04:06 28.1 °F 19.9 °F 29.88 in ENE 4.0 mph 10.0 mph 71% 0.00 in 0 W/m2
04:12 28.0 °F 19.5 °F 29.88 in ENE 5.0 mph 9.0 mph 70% 0.00 in 0 W/m2
04:18 28.1 °F 19.6 °F 29.88 in East 5.0 mph 11.0 mph 70% 0.00 in 0 W/m2
04:24 28.0 °F 19.5 °F 29.88 in ENE 5.0 mph 5.0 mph 70% 0.00 in 0 W/m2
04:30 28.1 °F 19.6 °F 29.88 in ENE 3.0 mph 4.0 mph 70% 0.00 in 0 W/m2
04:36 28.2 °F 19.3 °F 29.88 in East 5.0 mph 8.0 mph 69% 0.00 in 0 W/m2
04:42 28.2 °F 19.7 °F 29.88 in East 5.0 mph 5.0 mph 70% 0.00 in 0 W/m2
04:48 28.4 °F 19.5 °F 29.89 in East 5.0 mph 5.0 mph 69% 0.00 in 0 W/m2
04:54 28.4 °F 19.9 °F 29.89 in East 4.0 mph 4.0 mph 70% 0.00 in 0 W/m2
05:00 28.5 °F 19.6 °F 29.89 in East 4.0 mph 6.0 mph 69% 0.00 in 0 W/m2
05:06 28.5 °F 19.6 °F 29.89 in East 5.0 mph 6.0 mph 69% 0.00 in 0 W/m2
05:12 28.6 °F 19.7 °F 29.89 in ENE 4.0 mph 4.0 mph 69% 0.00 in 0 W/m2
05:18 28.7 °F 19.5 °F 29.88 in East 4.0 mph 9.0 mph 68% 0.00 in 0 W/m2
05:24 28.7 °F 19.5 °F 29.88 in ENE 6.0 mph 9.0 mph 68% 0.00 in 0 W/m2
05:30 28.7 °F 19.5 °F 29.88 in ENE 4.0 mph 9.0 mph 68% 0.00 in 0 W/m2
05:36 28.7 °F 19.5 °F 29.87 in East 3.0 mph 9.0 mph 68% 0.00 in 0 W/m2
05:42 28.8 °F 19.6 °F 29.87 in North 4.0 mph 4.0 mph 68% 0.00 in 0 W/m2
05:48 28.7 °F 19.5 °F 29.87 in ENE 4.0 mph 4.0 mph 68% 0.00 in 0 W/m2
05:54 28.8 °F 19.6 °F 29.87 in ENE 5.0 mph 8.0 mph 68% 0.00 in 0 W/m2
06:00 28.8 °F 19.6 °F 29.87 in East 5.0 mph 7.0 mph 68% 0.00 in 0 W/m2
06:06 28.8 °F 19.6 °F 29.86 in ENE 5.0 mph 8.0 mph 68% 0.00 in 0 W/m2
06:12 28.8 °F 19.6 °F 29.86 in NNE 5.0 mph 9.0 mph 68% 0.00 in 0 W/m2
06:18 28.9 °F 19.7 °F 29.86 in NNE 5.0 mph 13.0 mph 68% 0.00 in 0 W/m2
06:24 28.8 °F 19.6 °F 29.86 in East 6.0 mph 9.0 mph 68% 0.00 in 0 W/m2
06:30 28.8 °F 19.6 °F 29.86 in East 5.0 mph 5.0 mph 68% 0.00 in 0 W/m2
06:36 28.9 °F 19.7 °F 29.85 in ENE 5.0 mph 7.0 mph 68% 0.00 in 0 W/m2
06:42 28.9 °F 19.7 °F 29.85 in East 5.0 mph 5.0 mph 68% 0.00 in 0 W/m2
06:48 28.9 °F 19.7 °F 29.85 in East 5.0 mph 9.0 mph 68% 0.00 in 0 W/m2
06:54 28.9 °F 19.3 °F 29.84 in ENE 5.0 mph 5.0 mph 67% 0.00 in 0 W/m2
07:00 28.9 °F 19.3 °F 29.86 in ENE 4.0 mph 7.0 mph 67% 0.00 in 0 W/m2
07:06 28.9 °F 19.3 °F 29.86 in East 5.0 mph 7.0 mph 67% 0.00 in 0 W/m2
07:12 29.0 °F 19.8 °F 29.85 in NE 4.0 mph 5.0 mph 68% 0.00 in 0 W/m2
07:18 29.0 °F 19.4 °F 29.85 in East 3.0 mph 7.0 mph 67% 0.00 in 0 W/m2
07:24 29.1 °F 19.2 °F 29.85 in East 4.0 mph 9.0 mph 66% 0.00 in 0 W/m2
07:30 29.1 °F 19.5 °F 29.84 in East 4.0 mph 4.0 mph 67% 0.00 in 5 W/m2
07:36 29.2 °F 19.6 °F 29.84 in East 3.0 mph 6.0 mph 67% 0.00 in 7 W/m2
07:42 29.2 °F 19.6 °F 29.84 in SE 5.0 mph 5.0 mph 67% 0.00 in 9 W/m2
07:48 29.4 °F 19.8 °F 29.84 in East 4.0 mph 6.0 mph 67% 0.00 in 12 W/m2
07:54 29.5 °F 19.9 °F 29.84 in East 4.0 mph 7.0 mph 67% 0.00 in 14 W/m2
08:00 29.6 °F 20.0 °F 29.84 in ENE 4.0 mph 4.0 mph 67% 0.00 in 18 W/m2
08:06 29.8 °F 20.2 °F 29.84 in ENE 4.0 mph 8.0 mph 67% 0.00 in 19 W/m2
08:12 30.0 °F 20.4 °F 29.84 in ESE 4.0 mph 4.0 mph 67% 0.00 in 23 W/m2
08:18 30.1 °F 20.1 °F 29.84 in ESE 4.0 mph 4.0 mph 66% 0.00 in 25 W/m2
08:24 30.3 °F 20.3 °F 29.84 in ENE 4.0 mph 12.0 mph 66% 0.00 in 25 W/m2
08:30 30.5 °F 20.5 °F 29.84 in ESE 5.0 mph 7.0 mph 66% 0.00 in 30 W/m2
08:36 30.6 °F 20.2 °F 29.84 in East 4.0 mph 8.0 mph 65% 0.00 in 37 W/m2
08:42 30.7 °F 20.3 °F 29.84 in East 3.0 mph 4.0 mph 65% 0.00 in 40 W/m2
08:48 30.8 °F 20.8 °F 29.84 in ESE 4.0 mph 5.0 mph 66% 0.00 in 49 W/m2
08:54 30.8 °F 20.8 °F 29.83 in ENE 5.0 mph 8.0 mph 66% 0.00 in 44 W/m2
09:00 30.9 °F 20.9 °F 29.83 in East 6.0 mph 6.0 mph 66% 0.00 in 51 W/m2
09:06 30.9 °F 20.9 °F 29.83 in ENE 5.0 mph 10.0 mph 66% 0.00 in 60 W/m2
09:12 31.0 °F 21.0 °F 29.83 in East 5.0 mph 7.0 mph 66% 0.00 in 62 W/m2
09:18 31.1 °F 20.7 °F 29.82 in ENE 5.0 mph 7.0 mph 65% 0.00 in 70 W/m2
09:24 31.2 °F 21.2 °F 29.81 in East 5.0 mph 7.0 mph 66% 0.00 in 69 W/m2
09:30 31.2 °F 21.2 °F 29.82 in NE 5.0 mph 5.0 mph 66% 0.00 in 54 W/m2
09:36 31.2 °F 21.2 °F 29.82 in ENE 5.0 mph 7.0 mph 66% 0.00 in 58 W/m2
09:42 31.2 °F 21.2 °F 29.81 in ENE 5.0 mph 8.0 mph 66% 0.00 in 69 W/m2
09:48 31.2 °F 21.2 °F 29.80 in ESE 5.0 mph 8.0 mph 66% 0.00 in 84 W/m2
09:54 31.4 °F 21.7 °F 29.80 in East 5.0 mph 8.0 mph 67% 0.00 in 93 W/m2
10:00 31.4 °F 21.3 °F 29.80 in NE 6.0 mph 11.0 mph 66% 0.00 in 93 W/m2
10:06 31.5 °F 21.4 °F 29.79 in SE 6.0 mph 11.0 mph 66% 0.00 in 107 W/m2
10:12 31.6 °F 21.5 °F 29.79 in SE 5.0 mph 10.0 mph 66% 0.00 in 111 W/m2
10:18 31.7 °F 21.6 °F 29.79 in East 6.0 mph 10.0 mph 66% 0.00 in 104 W/m2
10:24 31.8 °F 21.7 °F 29.80 in ESE 6.0 mph 6.0 mph 66% 0.00 in 98 W/m2
10:30 32.0 °F 21.9 °F 29.80 in East 4.0 mph 8.0 mph 66% 0.00 in 91 W/m2
10:36 32.0 °F 21.9 °F 29.80 in ENE 5.0 mph 10.0 mph 66% 0.00 in 98 W/m2
10:42 32.1 °F 22.0 °F 29.79 in ESE 7.0 mph 7.0 mph 66% 0.00 in 120 W/m2
10:48 32.2 °F 22.1 °F 29.79 in ENE 6.0 mph 7.0 mph 66% 0.00 in 97 W/m2
10:54 32.3 °F 22.2 °F 29.78 in SSE 6.0 mph 10.0 mph 66% 0.00 in 81 W/m2
11:00 32.3 °F 22.2 °F 29.78 in NNE 5.0 mph 6.0 mph 66% 0.00 in 81 W/m2
11:06 32.2 °F 22.1 °F 29.78 in NE 6.0 mph 8.0 mph 66% 0.00 in 70 W/m2
11:12 32.1 °F 22.0 °F 29.77 in East 6.0 mph 15.0 mph 66% 0.00 in 63 W/m2
11:18 32.1 °F 22.4 °F 29.77 in East 6.0 mph 15.0 mph 67% 0.00 in 69 W/m2
11:24 32.1 °F 22.4 °F 29.76 in NE 7.0 mph 8.0 mph 67% 0.00 in 60 W/m2
11:30 32.0 °F 22.3 °F 29.76 in ENE 7.0 mph 7.0 mph 67% 0.00 in 69 W/m2
11:36 32.0 °F 22.6 °F 29.76 in ESE 6.0 mph 9.0 mph 68% 0.00 in 67 W/m2
11:42 32.1 °F 22.7 °F 29.75 in ESE 6.0 mph 6.0 mph 68% 0.00 in 84 W/m2
11:48 32.2 °F 22.8 °F 29.75 in ENE 5.0 mph 6.0 mph 68% 0.00 in 84 W/m2
11:54 32.1 °F 22.7 °F 29.73 in NNE 6.0 mph 13.0 mph 68% 0.00 in 90 W/m2
12:00 32.1 °F 22.7 °F 29.73 in ENE 6.0 mph 10.0 mph 68% 0.00 in 77 W/m2
12:06 32.1 °F 23.1 °F 29.73 in East 5.0 mph 10.0 mph 69% 0.00 in 86 W/m2
12:12 32.1 °F 23.4 °F 29.72 in ENE 6.0 mph 7.0 mph 70% 0.00 in 88 W/m2
12:18 31.9 °F 24.2 °F 29.72 in ENE 6.0 mph 11.0 mph 73% 0.00 in 69 W/m2
12:26 31.5 °F 24.8 °F 29.72 in SE 6.0 mph 6.0 mph 76% 0.00 in 56 W/m2
12:32 31.4 °F 25.0 °F 29.71 in East 6.0 mph 7.0 mph 77% 0.00 in 67 W/m2
12:38 31.2 °F 25.4 °F 29.70 in ESE 6.0 mph 8.0 mph 79% 0.00 in 74 W/m2
12:44 30.9 °F 25.8 °F 29.70 in East 6.0 mph 13.0 mph 81% 0.00 in 62 W/m2
12:50 30.8 °F 26.0 °F 29.70 in NNE 6.0 mph 6.0 mph 82% 0.00 in 56 W/m2
12:56 30.6 °F 26.3 °F 29.69 in ENE 6.0 mph 9.0 mph 84% 0.00 in 67 W/m2
13:02 30.6 °F 26.6 °F 29.68 in ENE 7.0 mph 7.0 mph 85% 0.00 in 63 W/m2
13:08 30.7 °F 27.0 °F 29.68 in ENE 5.0 mph 7.0 mph 86% 0.00 in 76 W/m2
13:14 30.7 °F 27.3 °F 29.67 in ENE 1.0 mph 4.0 mph 87% 0.00 in 62 W/m2
13:20 30.7 °F 27.3 °F 29.67 in Calm     87% 0.00 in 62 W/m2
13:26 30.7 °F 27.6 °F 29.66 in Calm     88% 0.00 in 65 W/m2
13:32 30.8 °F 27.7 °F 29.66 in Calm     88% 0.00 in 63 W/m2
13:38 30.8 °F 27.7 °F 29.65 in Calm     88% 0.00 in 56 W/m2
13:44 30.9 °F 28.0 °F 29.65 in Calm     89% 0.00 in 60 W/m2
13:50 31.0 °F 28.1 °F 29.65 in Calm     89% 0.00 in 47 W/m2
13:56 31.0 °F 28.1 °F 29.65 in Calm     89% 0.00 in 40 W/m2
14:02 31.1 °F 28.5 °F 29.65 in Calm     90% 0.00 in 44 W/m2
14:08 31.2 °F 28.6 °F 29.64 in Calm     90% 0.00 in 49 W/m2
14:14 31.3 °F 28.7 °F 29.64 in Calm     90% 0.00 in 54 W/m2
14:20 31.3 °F 28.7 °F 29.63 in Calm     90% 0.00 in 46 W/m2
14:26 31.3 °F 28.7 °F 29.62 in Calm     90% 0.00 in 47 W/m2
14:32 31.3 °F 28.7 °F 29.62 in Calm     90% 0.00 in 40 W/m2
14:38 31.4 °F 29.1 °F 29.62 in Calm     91% 0.00 in 40 W/m2
14:44 31.5 °F 29.2 °F 29.61 in Calm     91% 0.00 in 37 W/m2
14:50 31.5 °F 29.2 °F 29.61 in Calm     91% 0.00 in 37 W/m2
14:56 31.5 °F 29.2 °F 29.60 in Calm     91% 0.00 in 44 W/m2
15:02 31.6 °F 29.3 °F 29.60 in Calm     91% 0.00 in 30 W/m2
15:08 31.7 °F 29.4 °F 29.61 in Calm     91% 0.00 in 19 W/m2
15:14 31.7 °F 29.4 °F 29.60 in Calm     91% 0.00 in 30 W/m2
15:20 31.7 °F 29.4 °F 29.60 in Calm     91% 0.00 in 26 W/m2
15:26 31.8 °F 29.5 °F 29.59 in Calm     91% 0.00 in 28 W/m2
15:32 31.8 °F 29.5 °F 29.58 in Calm     91% 0.00 in 32 W/m2
15:38 31.9 °F 29.6 °F 29.59 in Calm     91% 0.00 in 16 W/m2
15:44 31.9 °F 29.6 °F 29.58 in Calm     91% 0.00 in 14 W/m2
15:50 31.9 °F 29.6 °F 29.57 in Calm     91% 0.00 in 19 W/m2
15:56 31.9 °F 29.6 °F 29.57 in Calm     91% 0.00 in 14 W/m2
16:02 31.9 °F 29.6 °F 29.56 in Calm     91% 0.00 in 21 W/m2
16:08 32.0 °F 29.7 °F 29.56 in Calm     91% 0.00 in 14 W/m2
16:14 32.1 °F 29.8 °F 29.56 in Calm     91% 0.00 in 12 W/m2
16:20 32.2 °F 29.9 °F 29.56 in Calm     91% 0.00 in 7 W/m2
16:26 32.2 °F 30.1 °F 29.56 in Calm     92% 0.00 in 5 W/m2
16:32 32.3 °F 30.2 °F 29.54 in Calm     92% 0.00 in 5 W/m2
16:38 32.3 °F 30.2 °F 29.54 in Calm     92% 0.00 in 5 W/m2
16:44 32.4 °F 30.3 °F 29.54 in Calm     92% 0.00 in 7 W/m2
16:50 32.5 °F 30.4 °F 29.53 in Calm     92% 0.00 in 5 W/m2
16:56 32.5 °F 30.4 °F 29.53 in Calm     92% 0.00 in 0 W/m2
17:02 32.6 °F 30.5 °F 29.52 in Calm     92% 0.00 in 0 W/m2
17:08 32.6 °F 30.5 °F 29.53 in Calm     92% 0.00 in 0 W/m2
17:14 32.6 °F 30.5 °F 29.52 in Calm     92% 0.00 in 0 W/m2
17:20 32.7 °F 30.6 °F 29.52 in Calm     92% 0.00 in 0 W/m2
17:26 32.7 °F 30.6 °F 29.51 in Calm     92% 0.00 in 0 W/m2
17:32 32.7 °F 30.6 °F 29.51 in Calm     92% 0.00 in 0 W/m2
17:38 32.7 °F 30.6 °F 29.51 in Calm     92% 0.00 in 0 W/m2
17:44 32.7 °F 30.6 °F 29.51 in Calm     92% 0.00 in 0 W/m2
17:48 32.6 °F 30.5 °F 29.51 in Calm     92% 0.00 in 0 W/m2
17:54 32.7 °F 30.6 °F 29.50 in Calm     92% 0.00 in 0 W/m2
18:00 32.8 °F 30.7 °F 29.50 in ENE 1.0 mph 1.0 mph 92% 0.00 in 0 W/m2
18:06 32.8 °F 30.7 °F 29.50 in East 3.0 mph 5.0 mph 92% 0.00 in 0 W/m2
18:12 32.8 °F 31.0 °F 29.49 in ENE 5.0 mph 5.0 mph 93% 0.00 in 0 W/m2
18:18 32.9 °F 31.1 °F 29.48 in ENE 5.0 mph 10.0 mph 93% 0.00 in 0 W/m2
18:24 32.9 °F 30.8 °F 29.48 in East 5.0 mph 6.0 mph 92% 0.00 in 0 W/m2
18:30 33.0 °F 30.9 °F 29.48 in ENE 5.0 mph 8.0 mph 92% 0.00 in 0 W/m2
18:36 33.0 °F 31.2 °F 29.47 in East 5.0 mph 8.0 mph 93% 0.00 in 0 W/m2
18:42 33.1 °F 31.3 °F 29.46 in ENE 5.0 mph 5.0 mph 93% 0.00 in 0 W/m2
18:48 33.1 °F 31.3 °F 29.46 in East 5.0 mph 5.0 mph 93% 0.00 in 0 W/m2
18:54 33.2 °F 31.4 °F 29.46 in East 5.0 mph 6.0 mph 93% 0.00 in 0 W/m2
19:00 33.4 °F 31.6 °F 29.45 in ENE 5.0 mph 5.0 mph 93% 0.00 in 0 W/m2
19:06 33.4 °F 31.6 °F 29.45 in East 4.0 mph 5.0 mph 93% 0.00 in 0 W/m2
19:12 33.4 °F 31.6 °F 29.44 in ENE 4.0 mph 5.0 mph 93% 0.00 in 0 W/m2
19:18 33.5 °F 31.7 °F 29.44 in ENE 5.0 mph 5.0 mph 93% 0.00 in 0 W/m2
19:24 33.6 °F 31.8 °F 29.44 in East 5.0 mph 7.0 mph 93% 0.00 in 0 W/m2
19:30 33.9 °F 32.1 °F 29.43 in ENE 5.0 mph 5.0 mph 93% 0.00 in 0 W/m2
19:36 34.0 °F 32.2 °F 29.43 in ENE 5.0 mph 7.0 mph 93% 0.00 in 0 W/m2
19:42 34.1 °F 32.3 °F 29.43 in ENE 3.0 mph 6.0 mph 93% 0.00 in 0 W/m2
19:48 34.3 °F 32.5 °F 29.43 in East 3.0 mph 6.0 mph 93% 0.00 in 0 W/m2
19:54 34.3 °F 32.5 °F 29.43 in ENE 4.0 mph 4.0 mph 93% 0.00 in 0 W/m2
20:00 34.4 °F 32.6 °F 29.43 in ENE 4.0 mph 4.0 mph 93% 0.00 in 0 W/m2
20:06 34.4 °F 32.6 °F 29.43 in ENE 3.0 mph 4.0 mph 93% 0.00 in 0 W/m2
20:12 34.5 °F 32.7 °F 29.43 in SE 3.0 mph 4.0 mph 93% 0.00 in 0 W/m2
20:18 34.6 °F 32.8 °F 29.42 in ENE 3.0 mph 4.0 mph 93% 0.00 in 0 W/m2
20:24 34.6 °F 32.8 °F 29.42 in ENE 3.0 mph 4.0 mph 93% 0.00 in 0 W/m2
20:30 34.9 °F 33.1 °F 29.41 in East 2.0 mph 2.0 mph 93% 0.00 in 0 W/m2
20:36 34.4 °F 32.6 °F 29.41 in East 1.0 mph 3.0 mph 93% 0.00 in 0 W/m2
20:42 34.1 °F 32.3 °F 29.41 in East 1.0 mph 3.0 mph 93% 0.00 in 0 W/m2
20:48 34.4 °F 32.6 °F 29.40 in NNE 1.0 mph 3.0 mph 93% 0.00 in 0 W/m2
20:54 34.5 °F 32.7 °F 29.40 in ESE 1.0 mph 3.0 mph 93% 0.00 in 0 W/m2
21:00 34.4 °F 32.6 °F 29.40 in ENE 2.0 mph 3.0 mph 93% 0.00 in 0 W/m2
21:06 34.3 °F 32.5 °F 29.40 in ENE 2.0 mph 3.0 mph 93% 0.00 in 0 W/m2
21:12 34.4 °F 32.6 °F 29.40 in East 2.0 mph 3.0 mph 93% 0.00 in 0 W/m2
21:18 38.5 °F 36.9 °F 29.39 in South 3.0 mph 5.0 mph 94% 0.00 in 0 W/m2
21:24 41.4 °F 39.8 °F 29.39 in SE 4.0 mph 6.0 mph 94% 0.00 in 0 W/m2
21:30 40.9 °F 39.3 °F 29.39 in ENE 2.0 mph 2.0 mph 94% 0.00 in 0 W/m2
21:36 40.6 °F 39.0 °F 29.38 in East 2.0 mph 5.0 mph 94% 0.00 in 0 W/m2
21:42 41.1 °F 39.5 °F 29.39 in SE 3.0 mph 3.0 mph 94% 0.00 in 0 W/m2
21:48 42.3 °F 40.4 °F 29.38 in SE 3.0 mph 3.0 mph 93% 0.00 in 0 W/m2
21:54 41.7 °F 39.5 °F 29.38 in ESE 2.0 mph 2.0 mph 92% 0.00 in 0 W/m2
22:00 42.7 °F 40.5 °F 29.37 in WSW 2.0 mph 2.0 mph 92% 0.00 in 0 W/m2
22:06 42.5 °F 40.1 °F 29.37 in South 2.0 mph 2.0 mph 91% 0.00 in 0 W/m2
22:12 43.3 °F 40.8 °F 29.37 in East 2.0 mph 4.0 mph 91% 0.00 in 0 W/m2
22:18 43.0 °F 40.3 °F 29.37 in South 3.0 mph 4.0 mph 90% 0.00 in 0 W/m2
22:24 43.4 °F 40.7 °F 29.37 in ENE 2.0 mph 3.0 mph 90% 0.00 in 0 W/m2
22:30 44.8 °F 41.8 °F 29.36 in ESE 4.0 mph 4.0 mph 89% 0.00 in 0 W/m2
22:36 45.2 °F 41.6 °F 29.36 in SSE 5.0 mph 7.0 mph 87% 0.00 in 0 W/m2
22:42 45.6 °F 41.7 °F 29.35 in South 6.0 mph 8.0 mph 86% 0.00 in 0 W/m2
22:48 45.8 °F 42.2 °F 29.35 in SSE 5.0 mph 8.0 mph 87% 0.00 in 0 W/m2
22:54 46.1 °F 42.1 °F 29.34 in SSE 6.0 mph 6.0 mph 86% 0.00 in 0 W/m2
23:00 46.0 °F 42.0 °F 29.34 in SSE 6.0 mph 6.0 mph 86% 0.00 in 0 W/m2
23:06 46.3 °F 42.3 °F 29.34 in South 6.0 mph 8.0 mph 86% 0.00 in 0 W/m2
23:12 45.9 °F 41.6 °F 29.35 in SSW 6.0 mph 6.0 mph 85% 0.00 in 0 W/m2
23:18 46.1 °F 42.1 °F 29.35 in South 4.0 mph 7.0 mph 86% 0.00 in 0 W/m2
23:24 46.1 °F 42.1 °F 29.34 in SE 6.0 mph 7.0 mph 86% 0.00 in 0 W/m2
23:30 45.7 °F 41.8 °F 29.33 in SSE 6.0 mph 9.0 mph 86% 0.00 in 0 W/m2
23:36 45.6 °F 41.7 °F 29.33 in SE 4.0 mph 9.0 mph 86% 0.00 in 0 W/m2
23:42 45.7 °F 42.3 °F 29.33 in ESE 4.0 mph 9.0 mph 88% 0.00 in 0 W/m2
23:48 46.0 °F 42.3 °F 29.33 in SSE 5.0 mph 9.0 mph 87% 0.00 in 0 W/m2
23:54 46.1 °F 42.4 °F 29.32 in SSE 4.0 mph 5.0 mph 87% 0.00 in 0 W/m2
Country Meadow, Clay, NY, USA
Compliments of Weather Underground - 2 mb